User: anonymous   Login
Location: Unspecified
(0.0000°N, 0.0000°E)
Time: 18:50:37
(UTC+00:00)
Language:

CZ-11 R/B - Orbit

View from above orbital plane
View from above orbital plane
View from above satellite
View from above satellite

Ground track
Ground track

The orbit data is extracted from the following two-line orbital elements,

1 41847U 16066G   19340.84848674 +.00000063 +00000-0 +19018-4 0  9991
2 41847 098.6844 024.1138 0366883 085.6354 278.6651 14.38025232161596
Epoch (UTC): 06 December 2019 20:21:49
Eccentricity: 0.0366883
inclination: 98.6844°
perigee height: 503 km
apogee height: 1027 km
right ascension of ascending node: 24.1138°
argument of perigee: 85.6354°
revolutions per day: 14.38025232
mean anomaly at epoch: 278.6651°
orbit number at epoch: 16159

The dashed part of the orbit path shows where the satellite is in the earth's shadow,  

DLR